Regional Weather Roundup
Issued by NWS

Home | Current Version | Previous Version | Text Only | Print | Product List | Glossary On
Versions: 1 2 3 4 5 6 7 8 9 10 11 12 13 14 15 16 17 18 19 20 21 22 23 24 25 26 27 28 29 30 31 32 33 34 35 36 37 38 39 40 41 42 43 44 45 46 47 48 49 50
000
ASUS43 KLOT 281209
RWRIL

ILLINOIS REGIONAL WEATHER ROUNDUP
NATIONAL WEATHER SERVICE CHICAGO/ROMEOVILLE IL
700 AM CDT WED JUN 28 2017

NOTE: "FAIR" INDICATES FEW OR NO CLOUDS BELOW 12,000 FEET WITH NO
SIGNIFICANT WEATHER AND/OR OBSTRUCTIONS TO VISIBILITY.

* THESE STATIONS ARE NOT UNDER NWS QUALITY CONTROL. THEY ALSO MAY NOT
  REPORT WEATHER SUCH AS PRECIPITATION OR FOG.

ILZ001-002-007-009-015-016-024-281300-
NORTHWEST ILLINOIS

CITY           SKY/WX    TMP DP  RH WIND       PRES   REMARKS
MOLINE         LGT RAIN  67  58  72 SW8       29.90R
6HR MIN TEMP:  59; 6HR MAX TEMP:  68; 6HR PCP:  0.01;

STERLING*      CLOUDY    65  55  70 S8        29.92
SAVANNA*       CLOUDY    64  56  74 S9        29.90R
$$

ILZ003-004-008-010-011-017-018-281300-
NORTH CENTRAL ILLINOIS

CITY           SKY/WX    TMP DP  RH WIND       PRES   REMARKS
ROCKFORD       CLOUDY    64  51  62 S15       29.94S
6HR MIN TEMP:  57; 6HR MAX TEMP:  64;

FREEPORT*      CLOUDY    63  53  69 S17G23    29.92R
ROCHELLE*      CLOUDY    63  51  66 S14       29.94S
DE KALB*       CLOUDY    60  51  71 S10       29.98R
PERU*          CLOUDY    61  51  68 S14       29.97S
$$

ILZ005-006-012>014-019>023-281300-
NORTHEAST ILLINOIS

CITY           SKY/WX    TMP DP  RH WIND       PRES   REMARKS
CHICAGO-OHARE  CLOUDY    65  48  54 S12       29.97F
6HR MIN TEMP:  58; 6HR MAX TEMP:  65;

CHICAGO-MIDWAY CLOUDY    66  48  52 S13       29.98F
6HR MIN TEMP:  63; 6HR MAX TEMP:  66;

AURORA         CLOUDY    63  50  62 S17       29.98S
6HR MIN TEMP:  55; 6HR MAX TEMP:  63;

LANSING*       PTSUNNY   62  47  58 S13       30.01F
JOLIET*        CLOUDY    63  51  65 S6        29.99S
WAUKEGAN       CLOUDY    63  49  60 S12       29.96F
6HR MIN TEMP:  55; 6HR MAX TEMP:  63;

DUPAGE AIRPORT CLOUDY    61  52  72 S10       29.96F
6HR MIN TEMP:  55; 6HR MAX TEMP:  61;

WHEELING       CLOUDY    64  50  60 S10       29.98F
6HR MIN TEMP:  55; 6HR MAX TEMP:  64;

MORRIS*        CLOUDY    62  50  64 S13       29.98R
ROMEOVILLE*    PTSUNNY   62  47  58 S14       29.99S
$$

LMZ740>746-281300-
SOUTHERN LAKE MICHIGAN

STATION/POSITION SKY/WX   TEMP    WIND        PRES    VSBY  WAVE
                          AIR SEA DIR/SP/G                  HT/PER
                          (F)     (DEG/KT/KT) (MB)    (MI)  (FT/S)
SOUTHERN BUOY              63 61  200/ 16/ 17 1016.0          2/ 4
WILMETTE HARBOR            64 63  160/ 14/ 17   N/A           2/ 3
HARRISON CRIB              65     180/ 16/ 19   N/A
BURNHAM HARBOR             65                   N/A
CALUMET HARBOR             65     180/  9/ 12 1015.4F
BURNS HARBOR               64     180/ 10/ 18 1016.9F
MICHIGAN CITY              63     160/ 13/ 16   N/A
MICHIGAN CITY 6N           63 66  170/ 14/ 17   N/A           2/ 2
ST. JOSEPH                 64 68  180/ 14/ 19 1016.8          2/ 2
$$

ILZ025>027-034>036-040-047-049-050-058-095>099-281300-
WEST-CENTRAL ILLINOIS

CITY           SKY/WX    TMP DP  RH WIND       PRES   REMARKS
QUINCY         CLOUDY    69  62  78 S16G22    29.94R
GALESBURG*     PTSUNNY   66  58  76 S13G20    29.93R
MACOMB*        CLOUDY    66  58  76 S13       29.95S
JACKSONVILLE*  PTSUNNY   66  57  72 S14G21    29.97F
PITTSFIELD*    CLOUDY    68  62  80 S10       29.98R
$$

ILZ028>032-037-038-041>044-048-051>054-059>061-281300-
CENTRAL ILLINOIS

CITY           SKY/WX    TMP DP  RH WIND       PRES   REMARKS
PONTIAC        CLOUDY    62  53  71 S15       30.01R
BLOOMINGTON    PTSUNNY   59  52  77 S13       30.03R
DECATUR        CLOUDY    62  52  69 S10       30.05R
PEORIA         CLOUDY    63  54  72 S15       29.97R
6HR MIN TEMP:  61; 6HR MAX TEMP:  65;

LACON*         CLOUDY    63  53  69 S8        29.97R
LINCOLN*       CLOUDY    63  55  75 S10       30.01R
SPRINGFIELD    PTSUNNY   66  56  70 S13       30.01R
6HR MIN TEMP:  64; 6HR MAX TEMP:  67;

TAYLORVILLE    CLOUDY    62  53  72 S8        30.04R
6HR MIN TEMP:  58; 6HR MAX TEMP:  62;

$$

ILZ033-039-045-046-055>057-062-063-281300-
EAST-CENTRAL ILLINOIS

CITY           SKY/WX    TMP DP  RH WIND       PRES   REMARKS
CHAMPAIGN      CLOUDY    62  50  64 S10       30.05R
RANTOUL*       PTSUNNY   59  53  80 S6        30.05R
MATTOON        CLOUDY    61  54  77 S9        30.04F
PARIS*         CLOUDY    57  54  88 SE6       30.07F
$$

ILZ079-100>102-281300-
SOUTHWEST ILLINOIS

CITY           SKY/WX    TMP DP  RH WIND       PRES   REMARKS
ALTON          CLOUDY    63  59  88 SE7       30.04R
BELLEVILLE     CLOUDY    61  58  89 CALM      30.06R
CAHOKIA*       CLOUDY    66  57  72 S5        30.03R
SPARTA*        CLOUDY    62  56  81 SE3       30.06R
$$

ILZ064>066-069>071-074>076-080>082-084>086-088>090-092>094-281300-
SOUTH-CENTRAL ILLINOIS

CITY           SKY/WX    TMP DP  RH WIND       PRES   REMARKS
CARBONDALE     MOSUNNY   63  59  87 SE3       30.06R
6HR MIN TEMP:  58; 6HR MAX TEMP:  63;

CAIRO*         MOSUNNY   68  60  76 SE5       30.07R
EFFINGHAM*     MOSUNNY   61  55  80 SE5       30.08R
MARION         PTSUNNY   64  59  82 SE6       30.07S
MT. VERNON     CLOUDY    63  56  78 S3        30.06S
CENTRALIA*     CLOUDY    65  56  73 S7        30.05R
SALEM*         MOSUNNY   65  53  65 S7        30.06R
METROPOLIS*    SUNNY     65  59  80 CALM      30.08F
$$

ILZ067-068-072-073-078-083-087-091-281300-
SOUTHEAST ILLINOIS

CITY           SKY/WX    TMP DP  RH WIND       PRES   REMARKS
LAWRENCEVILLE  MOSUNNY   59  55  87 SE6       30.08F
FLORA*         CLOUDY    61  56  84 S5        30.06F
FAIRFIELD*     MOSUNNY   63  56  77 CALM      30.05F
HARRISBURG*    SUNNY     61  58  89 CALM      30.07F
ROBINSON*      MOSUNNY   58  53  84 CALM      30.09F
CARMI*         MOSUNNY   61  58  90 S5        30.07F
$$

ABBREVIATIONS USED IN REMARKS
   TC - TEMPERATURE IN CELSIUS
  WCI - WIND CHILL INDEX
   HX - HEAT INDEX
  VSB - VISIBILITY
$$





USA.gov is the U.S. government's official web portal to all federal, state and local government web resources and services.